When you browse on this site, cookies collect data to enhance your experience and personalize the content and advertising you see.
Visit our Privacy Policy to learn more. By continuing to use the site, you agree to this use of cookies and data.
  • In United Kingdom
  • List of Countries
  • For 7 days
  • Water Temperature
  • Weather Map
  • Weather Widgets
  • user-avatar
    Login

    Hourly Weather San Luis

    Today, 29 May, Friday

    Time Temperature Precipitation Wind Pressure Humidity
    00:00 +10°C° 0 mm 2 mps 697 mmHg 62%
    01:00 +10°C° 0 mm 2 mps 697 mmHg 63%
    02:00 +11°C° 0 mm 1 mps 697 mmHg 66%
    03:00 +10°C° 0 mm 1 mps 697 mmHg 68%
    04:00 +10°C° 0 mm 1 mps 696 mmHg 71%
    05:00 +10°C° 0 mm 1 mps 696 mmHg 73%
    06:00 +10°C° 0 mm 1 mps 697 mmHg 73%
    07:00 +10°C° 0 mm 1 mps 697 mmHg 72%
    08:00 +9°C° 0 mm 2 mps 698 mmHg 71%
    09:00 +12°C° 0 mm 2 mps 698 mmHg 64%
    10:00 +14°C° 0 mm 2 mps 698 mmHg 56%
    11:00 +17°C° 0 mm 2 mps 699 mmHg 48%
    12:00 +18°C° 0 mm 2 mps 698 mmHg 45%
    13:00 +19°C° 0 mm 2 mps 698 mmHg 42%
    14:00 +19°C° 0 mm 2 mps 697 mmHg 40%
    15:00 +18°C° 0 mm 3 mps 698 mmHg 44%
    16:00 +16°C° 0 mm 5 mps 698 mmHg 49%
    17:00 +15°C° 0 mm 6 mps 698 mmHg 54%
    18:00 +13°C° 0 mm 6 mps 698 mmHg 62%
    19:00 +11°C° 0 mm 7 mps 699 mmHg 69%
    20:00 +9°C° 0 mm 7 mps 699 mmHg 77%
    21:00 +9°C° 0 mm 7 mps 700 mmHg 77%
    22:00 +8°C° 0 mm 7 mps 700 mmHg 77%
    23:00 +8°C° 0 mm 7 mps 701 mmHg 78%

    Tomorrow, 30 May, Saturday

    Time Temperature Precipitation Wind Pressure Humidity
    00:00 +6°C° 0 mm 7 mps 701 mmHg 78%
    01:00 +6°C° 0 mm 7 mps 701 mmHg 79%
    02:00 +5°C° 0 mm 7 mps 701 mmHg 79%
    03:00 +5°C° 0 mm 7 mps 702 mmHg 80%
    04:00 +4°C° 0 mm 7 mps 702 mmHg 80%
    05:00 +4°C° 0 mm 7 mps 702 mmHg 81%
    06:00 +4°C° 0 mm 6 mps 702 mmHg 78%
    07:00 +4°C° 0 mm 6 mps 703 mmHg 74%
    08:00 +4°C° 0 mm 6 mps 704 mmHg 71%
    09:00 +5°C° 0 mm 6 mps 704 mmHg 63%
    10:00 +7°C° 0 mm 6 mps 704 mmHg 55%
    11:00 +8°C° 0 mm 6 mps 705 mmHg 47%
    12:00 +8°C° 0 mm 6 mps 704 mmHg 42%
    13:00 +9°C° 0 mm 6 mps 704 mmHg 37%
    14:00 +9°C° 0 mm 6 mps 704 mmHg 32%
    15:00 +9°C° 0 mm 6 mps 704 mmHg 38%
    16:00 +8°C° 0 mm 6 mps 703 mmHg 44%
    17:00 +7°C° 0 mm 6 mps 703 mmHg 51%
    18:00 +6°C° 0 mm 5 mps 704 mmHg 56%
    19:00 +6°C° 0 mm 4 mps 704 mmHg 61%
    20:00 +5°C° 0 mm 3 mps 704 mmHg 66%
    21:00 +5°C° 0 mm 3 mps 704 mmHg 66%
    22:00 +5°C° 0 mm 3 mps 704 mmHg 65%
    23:00 +5°C° 0 mm 3 mps 705 mmHg 65%

    Day after tomorrow, 31 May, Sunday

    Time Temperature Precipitation Wind Pressure Humidity
    00:00 +5°C° 0 mm 3 mps 704 mmHg 61%
    01:00 +6°C° 0 mm 2 mps 704 mmHg 58%
    02:00 +6°C° 0 mm 2 mps 704 mmHg 54%
    03:00 +5°C° 0 mm 2 mps 704 mmHg 55%
    04:00 +5°C° 0 mm 2 mps 704 mmHg 56%
    05:00 +4°C° 0 mm 2 mps 703 mmHg 57%
    06:00 +5°C° 0 mm 2 mps 703 mmHg 54%
    07:00 +5°C° 0 mm 2 mps 704 mmHg 52%
    08:00 +6°C° 0 mm 2 mps 704 mmHg 49%
    09:00 +8°C° 0 mm 2 mps 704 mmHg 43%
    10:00 +9°C° 0 mm 2 mps 704 mmHg 38%
    11:00 +12°C° 0 mm 1 mps 705 mmHg 32%
    12:00 +12°C° 0 mm 2 mps 704 mmHg 32%
    13:00 +13°C° 0 mm 2 mps 703 mmHg 31%
    14:00 +13°C° 0 mm 2 mps 703 mmHg 31%
    15:00 +13°C° 0 mm 2 mps 703 mmHg 33%
    16:00 +12°C° 0 mm 2 mps 702 mmHg 35%
    17:00 +12°C° 0 mm 1 mps 702 mmHg 37%
    18:00 +11°C° 0 mm 1 mps 702 mmHg 40%
    19:00 +9°C° 0 mm 1 mps 702 mmHg 43%
    20:00 +7°C° 0 mm 2 mps 702 mmHg 46%
    21:00 +8°C° 0 mm 1 mps 702 mmHg 50%
    22:00 +7°C° 0 mm 1 mps 702 mmHg 54%
    23:00 +6°C° 0 mm 1 mps 702 mmHg 58%

    1 June, Monday

    Time Temperature Precipitation Wind Pressure Humidity
    00:00 +6°C° 0 mm 1 mps 702 mmHg 56%
    01:00 +5°C° 0 mm 2 mps 702 mmHg 54%
    02:00 +5°C° 0 mm 2 mps 702 mmHg 53%
    03:00 +5°C° 0 mm 2 mps 702 mmHg 52%
    04:00 +5°C° 0 mm 2 mps 702 mmHg 51%
    05:00 +4°C° 0 mm 3 mps 702 mmHg 50%
    06:00 +4°C° 0 mm 3 mps 702 mmHg 48%
    07:00 +5°C° 0 mm 3 mps 702 mmHg 46%
    08:00 +5°C° 0 mm 3 mps 703 mmHg 45%
    09:00 +8°C° 0 mm 4 mps 703 mmHg 40%
    10:00 +12°C° 0 mm 4 mps 703 mmHg 36%
    11:00 +14°C° 0 mm 5 mps 704 mmHg 31%
    12:00 +15°C° 0 mm 5 mps 703 mmHg 31%
    13:00 +16°C° 0 mm 5 mps 702 mmHg 30%
    14:00 +17°C° 0 mm 5 mps 702 mmHg 29%
    15:00 +17°C° 0 mm 4 mps 701 mmHg 33%
    16:00 +16°C° 0 mm 3 mps 701 mmHg 36%
    17:00 +15°C° 0 mm 2 mps 700 mmHg 39%
    18:00 +13°C° 0 mm 2 mps 700 mmHg 43%
    19:00 +10°C° 0 mm 2 mps 700 mmHg 47%
    20:00 +9°C° 0 mm 2 mps 700 mmHg 51%
    21:00 +8°C° 0 mm 2 mps 700 mmHg 51%
    22:00 +8°C° 0 mm 2 mps 700 mmHg 51%
    23:00 +8°C° 0 mm 2 mps 700 mmHg 51%

    2 June, Tuesday

    Time Temperature Precipitation Wind Pressure Humidity
    00:00 +8°C° 0 mm 3 mps 700 mmHg 49%
    01:00 +8°C° 0 mm 3 mps 700 mmHg 47%
    02:00 +8°C° 0 mm 4 mps 700 mmHg 45%
    03:00 +7°C° 0 mm 4 mps 700 mmHg 48%
    04:00 +8°C° 0 mm 3 mps 699 mmHg 51%
    05:00 +7°C° 0 mm 3 mps 699 mmHg 54%
    06:00 +8°C° 0 mm 3 mps 699 mmHg 52%
    07:00 +8°C° 0 mm 3 mps 699 mmHg 51%
    08:00 +8°C° 0 mm 3 mps 700 mmHg 50%
    09:00 +11°C° 0 mm 3 mps 700 mmHg 44%
    10:00 +13°C° 0 mm 4 mps 700 mmHg 38%
    11:00 +17°C° 0 mm 4 mps 700 mmHg 31%
    12:00 +18°C° 0 mm 4 mps 699 mmHg 30%
    13:00 +17°C° 0 mm 5 mps 698 mmHg 29%
    14:00 +19°C° 0 mm 5 mps 697 mmHg 29%
    15:00 +18°C° 0 mm 4 mps 697 mmHg 31%
    16:00 +17°C° 0 mm 3 mps 696 mmHg 34%
    17:00 +14°C° 0 mm 3 mps 696 mmHg 37%
    18:00 +14°C° 0 mm 2 mps 696 mmHg 41%
    19:00 +12°C° 0 mm 2 mps 696 mmHg 45%
    20:00 +10°C° 0 mm 2 mps 696 mmHg 49%
    21:00 +9°C° 0 mm 2 mps 696 mmHg 51%
    22:00 +10°C° 0 mm 1 mps 697 mmHg 54%
    23:00 +9°C° 0 mm 1 mps 697 mmHg 56%

    3 June, Wednesday

    Time Temperature Precipitation Wind Pressure Humidity
    00:00 +9°C° 0 mm 1 mps 698 mmHg 57%
    01:00 +8°C° 0 mm 2 mps 699 mmHg 58%
    02:00 +8°C° 0 mm 2 mps 699 mmHg 58%
    03:00 +7°C° 0 mm 3 mps 700 mmHg 62%
    04:00 +6°C° 0 mm 4 mps 701 mmHg 65%
    05:00 +6°C° 0 mm 5 mps 702 mmHg 68%
    06:00 +6°C° 0 mm 5 mps 703 mmHg 69%
    07:00 +5°C° 0 mm 6 mps 704 mmHg 71%
    08:00 +4°C° 0 mm 6 mps 705 mmHg 73%
    09:00 +5°C° 0 mm 7 mps 706 mmHg 71%
    10:00 +5°C° 0 mm 7 mps 707 mmHg 69%
    11:00 +6°C° 0 mm 8 mps 707 mmHg 68%
    12:00 +7°C° 0 mm 8 mps 707 mmHg 64%
    13:00 +8°C° 0 mm 7 mps 707 mmHg 60%
    14:00 +9°C° 0 mm 7 mps 707 mmHg 56%
    15:00 +9°C° 0 mm 7 mps 707 mmHg 55%
    16:00 +9°C° 0 mm 6 mps 707 mmHg 55%
    17:00 +9°C° 0 mm 5 mps 706 mmHg 54%
    18:00 +8°C° 0 mm 5 mps 706 mmHg 58%
    19:00 +7°C° 0 mm 5 mps 706 mmHg 63%
    20:00 +6°C° 0 mm 4 mps 706 mmHg 67%
    21:00 +5°C° 0 mm 4 mps 706 mmHg 68%
    22:00 +5°C° 0 mm 3 mps 706 mmHg 69%
    23:00 +6°C° 0 mm 2 mps 706 mmHg 70%
    Show more